QPF
0.00 0.00 0.00 0.00 0.00 0.00 0.00 0.00 0.00 0.00 0.00 0.00 0.00 0.00 0.00 0.00 0.00 0.00 0.01 0.01 0.02 0.04 0.06 0.09 0.14 0.20 0.21 0.23 0.28 0.30 0.25 0.21 0.15 0.11 0.07 0.05 0.03 0.03 0.04 0.04 0.03 0.02 0.01
0.00 0.00 0.00 0.00 0.00 0.00 0.00 0.00 0.00 0.00 0.00 0.00 0.00 0.00 0.00 0.00 0.00 0.00 0.00 0.00 0.01 0.01 0.02 0.03 0.08 0.13 0.17 0.20 0.22 0.24 0.25 0.23 0.20 0.16 0.12 0.08 0.04 0.02 0.03 0.04 0.04 0.03 0.02
0.00 0.00 0.00 0.00 0.00 0.00 0.00 0.00 0.00 0.00 0.00 0.00 0.00 0.00 0.00 0.00 0.00 0.00 0.00 0.00 0.00 0.00 0.01 0.01 0.03 0.06 0.10 0.12 0.16 0.20 0.22 0.23 0.23 0.19 0.17 0.12 0.07 0.05 0.03 0.02 0.02 0.03 0.02
0.00 0.00 0.00 0.00 0.00 0.00 0.00 0.00 0.00 0.00 0.00 0.00 0.00 0.00 0.00 0.00 0.00 0.00 0.00 0.00 0.00 0.00 0.01 0.01 0.02 0.03 0.04 0.07 0.11 0.18 0.21 0.22 0.23 0.22 0.18 0.14 0.09 0.08 0.06 0.04 0.03 0.04 0.03
0.00 0.00 0.00 0.00 0.00 0.00 0.00 0.00 0.00 0.00 0.00 0.00 0.00 0.00 0.01 0.01 0.00 0.01 0.01 0.01 0.01 0.01 0.01 0.02 0.02 0.02 0.02 0.04 0.08 0.14 0.18 0.18 0.20 0.23 0.24 0.21 0.13 0.08 0.06 0.04 0.04 0.03 0.02
0.00 0.00 0.00 0.00 0.00 0.00 0.00 0.00 0.00 0.00 0.00 0.00 0.00 0.00 0.01 0.01 0.01 0.02 0.02 0.02 0.01 0.01 0.02 0.02 0.03 0.03 0.03 0.04 0.06 0.09 0.13 0.18 0.20 0.21 0.22 0.23 0.19 0.11 0.06 0.04 0.04 0.05 0.04
0.00 0.00 0.00 0.00 0.00 0.00 0.00 0.00 0.00 0.00 0.00 0.00 0.00 0.00 0.01 0.01 0.01 0.02 0.03 0.02 0.02 0.03 0.04 0.03 0.04 0.04 0.05 0.05 0.07 0.08 0.09 0.13 0.16 0.18 0.19 0.19 0.18 0.17 0.13 0.09 0.05 0.05 0.04
0.00 0.00 0.00 0.00 0.00 0.00 0.00 0.00 0.00 0.00 0.00 0.00 0.00 0.00 0.01 0.02 0.03 0.03 0.04 0.04 0.03 0.04 0.03 0.04 0.04 0.05 0.06 0.06 0.07 0.07 0.09 0.11 0.14 0.16 0.18 0.19 0.19 0.17 0.16 0.14 0.11 0.07 0.04
0.00 0.00 0.00 0.00 0.00 0.00 0.00 0.00 0.00 0.00 0.00 0.00 0.00 0.00 0.01 0.03 0.05 0.05 0.06 0.05 0.05 0.04 0.03 0.04 0.05 0.05 0.06 0.07 0.09 0.09 0.09 0.09 0.10 0.13 0.16 0.16 0.18 0.20 0.18 0.16 0.16 0.13 0.09
0.00 0.00 0.00 0.00 0.00 0.00 0.00 0.00 0.00 0.00 0.00 0.00 0.00 0.00 0.01 0.03 0.04 0.04 0.04 0.04 0.05 0.06 0.04 0.03 0.03 0.04 0.04 0.04 0.06 0.09 0.09 0.10 0.09 0.10 0.14 0.14 0.17 0.21 0.21 0.18 0.17 0.16 0.13
0.00 0.00 0.00 0.00 0.00 0.00 0.00 0.00 0.00 0.00 0.00 0.00 0.00 0.00 0.01 0.02 0.01 0.02 0.02 0.03 0.04 0.06 0.08 0.07 0.04 0.04 0.06 0.06 0.06 0.08 0.09 0.09 0.10 0.11 0.12 0.15 0.18 0.21 0.23 0.22 0.19 0.17 0.15
0.00 0.00 0.00 0.00 0.00 0.00 0.00 0.00 0.00 0.00 0.00 0.00 0.00 0.00 0.00 0.01 0.01 0.01 0.02 0.02 0.02 0.04 0.08 0.09 0.07 0.05 0.05 0.05 0.05 0.07 0.09 0.09 0.09 0.12 0.13 0.12 0.14 0.18 0.22 0.23 0.23 0.21 0.19
0.00 0.00 0.00 0.00 0.00 0.00 0.00 0.00 0.00 0.00 0.00 0.00 0.00 0.00 0.00 0.00 0.00 0.01 0.01 0.01 0.01 0.03 0.06 0.05 0.05 0.05 0.05 0.05 0.04 0.05 0.06 0.08 0.08 0.11 0.12 0.10 0.12 0.15 0.19 0.21 0.22 0.25 0.27
0.00 0.00 0.00 0.00 0.00 0.00 0.00 0.00 0.00 0.00 0.00 0.00 0.00 0.00 0.00 0.00 0.00 0.01 0.01 0.00 0.00 0.01 0.02 0.04 0.04 0.03 0.04 0.04 0.04 0.05 0.05 0.05 0.07 0.09 0.11 0.12 0.11 0.11 0.13 0.17 0.18 0.21 0.25
0.00 0.00 0.00 0.00 0.00 0.00 0.00 0.00 0.00 0.00 0.00 0.00 0.00 0.00 0.00 0.00 0.00 0.00 0.00 0.00 0.00 0.00 0.00 0.01 0.02 0.02 0.03 0.03 0.02 0.02 0.03 0.04 0.05 0.08 0.10 0.12 0.12 0.10 0.10 0.12 0.14 0.17 0.19
0.00 0.00 0.00 0.00 0.00 0.00 0.00 0.00 0.00 0.00 0.00 0.00 0.00 0.00 0.00 0.00 0.00 0.00 0.00 0.00 0.00 0.00 0.00 0.00 0.01 0.01 0.01 0.02 0.02 0.02 0.03 0.03 0.05 0.07 0.09 0.11 0.12 0.12 0.12 0.13 0.15 0.16 0.18
0.00 0.00 0.00 0.00 0.00 0.00 0.00 0.00 0.00 0.00 0.00 0.00 0.00 0.00 0.00 0.00 0.00 0.00 0.00 0.00 0.00 0.00 0.00 0.00 0.00 0.00 0.01 0.02 0.02 0.03 0.04 0.05 0.07 0.08 0.08 0.11 0.12 0.14 0.13 0.14 0.16 0.16 0.18
0.00 0.00 0.00 0.00 0.00 0.00 0.00 0.00 0.00 0.00 0.00 0.00 0.00 0.00 0.00 0.00 0.00 0.00 0.00 0.00 0.00 0.00 0.00 0.00 0.00 0.00 0.00 0.02 0.03 0.03 0.04 0.07 0.12 0.12 0.10 0.11 0.12 0.16 0.15 0.16 0.17 0.13 0.12
0.00 0.00 0.00 0.00 0.00 0.00 0.00 0.00 0.00 0.00 0.00 0.00 0.00 0.00 0.00 0.00 0.00 0.00 0.00 0.00 0.00 0.00 0.00 0.00 0.00 0.00 0.00 0.02 0.04 0.04 0.07 0.07 0.07 0.10 0.14 0.15 0.15 0.17 0.17 0.14 0.14 0.12 0.11
0.00 0.00 0.00 0.00 0.00 0.00 0.00 0.00 0.00 0.00 0.00 0.00 0.00 0.00 0.00 0.00 0.00 0.00 0.00 0.00 0.00 0.00 0.01 0.00 0.00 0.01 0.01 0.02 0.03 0.03 0.08 0.09 0.08 0.09 0.14 0.17 0.17 0.17 0.16 0.15 0.11 0.09 0.09
0.00 0.00 0.00 0.00 0.00 0.00 0.00 0.00 0.00 0.00 0.00 0.00 0.00 0.00 0.00 0.00 0.00 0.00 0.00 0.00 0.00 0.00 0.01 0.00 0.00 0.01 0.01 0.01 0.02 0.04 0.07 0.09 0.13 0.12 0.11 0.14 0.18 0.18 0.15 0.14 0.12 0.08 0.06
0.00 0.00 0.00 0.00 0.00 0.00 0.00 0.00 0.00 0.00 0.00 0.00 0.00 0.00 0.00 0.00 0.00 0.00 0.00 0.00 0.00 0.00 0.00 0.00 0.00 0.00 0.01 0.01 0.03 0.07 0.08 0.08 0.13 0.14 0.13 0.12 0.16 0.16 0.14 0.13 0.11 0.09 0.08
0.00 0.00 0.00 0.00 0.00 0.00 0.00 0.00 0.00 0.00 0.00 0.00 0.00 0.00 0.00 0.00 0.00 0.00 0.00 0.00 0.00 0.00 0.00 0.01 0.01 0.01 0.01 0.02 0.05 0.08 0.09 0.08 0.11 0.11 0.10 0.11 0.13 0.13 0.11 0.11 0.09 0.08 0.05
0.00 0.00 0.00 0.00 0.00 0.00 0.00 0.00 0.00 0.00 0.00 0.00 0.00 0.00 0.00 0.00 0.00 0.00 0.00 0.00 0.00 0.00 0.00 0.01 0.02 0.01 0.01 0.02 0.04 0.06 0.06 0.07 0.08 0.09 0.08 0.08 0.08 0.08 0.09 0.08 0.08 0.06 0.04
0.00 0.00 0.00 0.00 0.00 0.00 0.00 0.00 0.00 0.00 0.00 0.00 0.00 0.00 0.00 0.00 0.00 0.00 0.00 0.00 0.00 0.00 0.00 0.00 0.01 0.01 0.03 0.06 0.06 0.05 0.05 0.05 0.06 0.06 0.05 0.05 0.04 0.03 0.04 0.05 0.05 0.05 0.04
0.00 0.00 0.00 0.00 0.00 0.00 0.00 0.00 0.00 0.00 0.00 0.00 0.00 0.00 0.00 0.00 0.00 0.00 0.00 0.00 0.00 0.00 0.00 0.00 0.01 0.01 0.02 0.03 0.03 0.03 0.03 0.04 0.04 0.03 0.03 0.03 0.01 0.01 0.02 0.02 0.02 0.03 0.04
MSLP
1020.20 1019.86 1019.53 1019.20 1018.88 1018.56 1018.22 1017.87 1017.49 1017.07 1016.62 1016.15 1015.66 1015.18 1014.72 1014.31 1013.96 1013.69 1013.48 1013.34 1013.26 1013.22 1013.22 1013.26 1013.34 1013.46 1013.63 1013.85 1014.12 1014.43 1014.76 1015.08 1015.36 1015.58 1015.74 1015.82 1015.84 1015.81 1015.78 1015.76 1015.79 1015.88 1016.04
1020.25 1019.93 1019.60 1019.26 1018.91 1018.55 1018.17 1017.79 1017.39 1016.97 1016.54 1016.09 1015.63 1015.17 1014.71 1014.28 1013.89 1013.56 1013.29 1013.10 1012.97 1012.91 1012.91 1012.96 1013.06 1013.21 1013.40 1013.63 1013.90 1014.21 1014.53 1014.85 1015.15 1015.41 1015.62 1015.76 1015.84 1015.87 1015.86 1015.85 1015.86 1015.90 1016.01
1020.20 1019.91 1019.60 1019.27 1018.91 1018.52 1018.11 1017.70 1017.30 1016.89 1016.49 1016.08 1015.66 1015.22 1014.78 1014.33 1013.91 1013.52 1013.19 1012.92 1012.74 1012.64 1012.61 1012.65 1012.74 1012.88 1013.07 1013.29 1013.55 1013.84 1014.15 1014.48 1014.81 1015.12 1015.39 1015.61 1015.78 1015.89 1015.94 1015.96 1015.97 1015.99 1016.03
1020.04 1019.81 1019.54 1019.24 1018.88 1018.49 1018.07 1017.65 1017.24 1016.85 1016.48 1016.11 1015.74 1015.34 1014.92 1014.47 1014.02 1013.58 1013.18 1012.85 1012.60 1012.43 1012.35 1012.35 1012.41 1012.52 1012.68 1012.86 1013.09 1013.34 1013.64 1013.96 1014.31 1014.67 1015.01 1015.33 1015.60 1015.80 1015.94 1016.02 1016.06 1016.07 1016.08
1019.80 1019.64 1019.45 1019.19 1018.86 1018.47 1018.05 1017.63 1017.23 1016.87 1016.53 1016.21 1015.88 1015.52 1015.12 1014.69 1014.22 1013.74 1013.29 1012.89 1012.57 1012.33 1012.18 1012.12 1012.13 1012.18 1012.27 1012.40 1012.56 1012.77 1013.02 1013.32 1013.67 1014.07 1014.48 1014.88 1015.25 1015.57 1015.81 1015.97 1016.06 1016.09 1016.09
1019.52 1019.45 1019.33 1019.14 1018.85 1018.49 1018.08 1017.67 1017.28 1016.93 1016.62 1016.34 1016.05 1015.74 1015.38 1014.96 1014.49 1013.99 1013.50 1013.05 1012.66 1012.36 1012.14 1012.01 1011.94 1011.91 1011.93 1011.97 1012.05 1012.17 1012.36 1012.61 1012.95 1013.35 1013.80 1014.27 1014.73 1015.15 1015.49 1015.74 1015.90 1015.98 1016.00
1019.25 1019.26 1019.23 1019.10 1018.86 1018.53 1018.14 1017.74 1017.36 1017.03 1016.75 1016.49 1016.25 1015.97 1015.65 1015.25 1014.80 1014.30 1013.79 1013.30 1012.87 1012.51 1012.24 1012.03 1011.88 1011.77 1011.69 1011.63 1011.61 1011.63 1011.72 1011.89 1012.17 1012.55 1013.01 1013.52 1014.05 1014.54 1014.97 1015.32 1015.56 1015.70 1015.77
1019.01 1019.10 1019.13 1019.06 1018.87 1018.58 1018.21 1017.82 1017.45 1017.13 1016.87 1016.64 1016.43 1016.19 1015.90 1015.54 1015.11 1014.63 1014.12 1013.63 1013.17 1012.78 1012.45 1012.18 1011.96 1011.76 1011.58 1011.42 1011.27 1011.17 1011.15 1011.23 1011.42 1011.74 1012.16 1012.67 1013.22 1013.77 1014.27 1014.69 1015.02 1015.25 1015.38
1018.80 1018.95 1019.03 1019.01 1018.86 1018.59 1018.24 1017.87 1017.52 1017.21 1016.97 1016.76 1016.58 1016.38 1016.12 1015.80 1015.40 1014.95 1014.46 1013.97 1013.52 1013.11 1012.75 1012.43 1012.14 1011.87 1011.60 1011.32 1011.06 1010.84 1010.69 1010.65 1010.73 1010.96 1011.31 1011.78 1012.32 1012.88 1013.42 1013.91 1014.31 1014.62 1014.85
1018.63 1018.79 1018.90 1018.90 1018.77 1018.52 1018.20 1017.85 1017.51 1017.23 1017.01 1016.83 1016.68 1016.51 1016.29 1016.00 1015.64 1015.22 1014.76 1014.30 1013.85 1013.44 1013.06 1012.71 1012.38 1012.04 1011.68 1011.31 1010.95 1010.61 1010.34 1010.17 1010.14 1010.25 1010.52 1010.91 1011.40 1011.94 1012.50 1013.02 1013.48 1013.87 1014.19
1018.45 1018.60 1018.70 1018.69 1018.57 1018.34 1018.04 1017.72 1017.42 1017.18 1016.99 1016.85 1016.72 1016.58 1016.40 1016.14 1015.81 1015.42 1014.99 1014.55 1014.12 1013.71 1013.32 1012.95 1012.58 1012.19 1011.78 1011.33 1010.88 1010.45 1010.07 1009.80 1009.65 1009.66 1009.82 1010.12 1010.54 1011.03 1011.56 1012.09 1012.59 1013.04 1013.43
1018.24 1018.35 1018.41 1018.38 1018.25 1018.04 1017.77 1017.49 1017.25 1017.05 1016.91 1016.81 1016.72 1016.61 1016.45 1016.22 1015.91 1015.55 1015.14 1014.71 1014.29 1013.88 1013.49 1013.10 1012.71 1012.28 1011.82 1011.33 1010.82 1010.32 1009.87 1009.51 1009.27 1009.17 1009.23 1009.44 1009.77 1010.19 1010.67 1011.17 1011.68 1012.17 1012.63
1017.99 1018.04 1018.04 1017.97 1017.83 1017.63 1017.40 1017.18 1017.00 1016.87 1016.79 1016.74 1016.69 1016.61 1016.47 1016.25 1015.96 1015.60 1015.20 1014.77 1014.35 1013.94 1013.54 1013.13 1012.72 1012.27 1011.79 1011.27 1010.73 1010.19 1009.69 1009.27 1008.97 1008.79 1008.77 1008.88 1009.11 1009.45 1009.86 1010.32 1010.81 1011.30 1011.80
1017.68 1017.66 1017.60 1017.50 1017.35 1017.17 1016.98 1016.83 1016.73 1016.68 1016.66 1016.67 1016.66 1016.60 1016.47 1016.25 1015.96 1015.59 1015.18 1014.75 1014.32 1013.89 1013.48 1013.06 1012.63 1012.17 1011.67 1011.14 1010.59 1010.04 1009.53 1009.08 1008.74 1008.51 1008.41 1008.44 1008.59 1008.84 1009.17 1009.56 1010.00 1010.48 1010.99
1017.33 1017.25 1017.14 1017.00 1016.85 1016.70 1016.57 1016.49 1016.47 1016.50 1016.55 1016.61 1016.63 1016.59 1016.46 1016.24 1015.93 1015.55 1015.13 1014.68 1014.23 1013.79 1013.36 1012.92 1012.48 1012.01 1011.51 1010.98 1010.44 1009.89 1009.38 1008.93 1008.57 1008.31 1008.16 1008.13 1008.20 1008.36 1008.60 1008.92 1009.29 1009.73 1010.23
1016.96 1016.83 1016.69 1016.54 1016.39 1016.28 1016.22 1016.21 1016.26 1016.36 1016.47 1016.57 1016.62 1016.58 1016.45 1016.22 1015.90 1015.51 1015.06 1014.60 1014.14 1013.68 1013.23 1012.78 1012.33 1011.85 1011.35 1010.83 1010.30 1009.77 1009.28 1008.84 1008.47 1008.19 1008.01 1007.92 1007.93 1008.01 1008.18 1008.42 1008.73 1009.11 1009.58
1016.58 1016.43 1016.28 1016.13 1016.02 1015.95 1015.94 1016.01 1016.12 1016.28 1016.43 1016.55 1016.61 1016.58 1016.44 1016.20 1015.87 1015.46 1015.02 1014.55 1014.08 1013.62 1013.16 1012.71 1012.24 1011.76 1011.26 1010.75 1010.23 1009.72 1009.23 1008.81 1008.44 1008.16 1007.95 1007.83 1007.78 1007.81 1007.91 1008.08 1008.33 1008.66 1009.09
1016.21 1016.07 1015.93 1015.81 1015.73 1015.71 1015.76 1015.87 1016.04 1016.22 1016.40 1016.53 1016.59 1016.55 1016.41 1016.16 1015.83 1015.44 1015.01 1014.55 1014.09 1013.64 1013.19 1012.73 1012.27 1011.79 1011.29 1010.77 1010.26 1009.76 1009.29 1008.86 1008.51 1008.22 1008.00 1007.85 1007.77 1007.76 1007.81 1007.94 1008.14 1008.43 1008.83
1015.86 1015.74 1015.63 1015.55 1015.51 1015.53 1015.62 1015.77 1015.96 1016.16 1016.34 1016.47 1016.52 1016.47 1016.33 1016.10 1015.79 1015.42 1015.02 1014.61 1014.18 1013.75 1013.32 1012.88 1012.42 1011.93 1011.43 1010.92 1010.40 1009.90 1009.44 1009.02 1008.67 1008.38 1008.15 1008.00 1007.90 1007.86 1007.89 1008.00 1008.17 1008.44 1008.81
1015.51 1015.42 1015.35 1015.30 1015.30 1015.36 1015.48 1015.65 1015.84 1016.04 1016.21 1016.32 1016.36 1016.32 1016.19 1015.98 1015.71 1015.40 1015.05 1014.69 1014.32 1013.94 1013.54 1013.12 1012.67 1012.19 1011.69 1011.17 1010.65 1010.15 1009.69 1009.27 1008.92 1008.64 1008.41 1008.26 1008.16 1008.13 1008.15 1008.25 1008.43 1008.69 1009.05
1015.17 1015.10 1015.05 1015.04 1015.07 1015.15 1015.28 1015.44 1015.63 1015.81 1015.96 1016.06 1016.10 1016.06 1015.97 1015.80 1015.59 1015.35 1015.08 1014.79 1014.48 1014.15 1013.79 1013.40 1012.97 1012.50 1012.00 1011.48 1010.97 1010.47 1010.01 1009.60 1009.26 1008.98 1008.77 1008.63 1008.54 1008.52 1008.56 1008.68 1008.86 1009.14 1009.51
1014.82 1014.76 1014.72 1014.72 1014.76 1014.84 1014.96 1015.11 1015.27 1015.43 1015.56 1015.66 1015.70 1015.69 1015.64 1015.54 1015.40 1015.24 1015.06 1014.85 1014.61 1014.35 1014.04 1013.68 1013.27 1012.81 1012.32 1011.81 1011.30 1010.82 1010.37 1009.98 1009.65 1009.39 1009.20 1009.08 1009.02 1009.02 1009.09 1009.22 1009.43 1009.73 1010.10
1014.50 1014.41 1014.36 1014.34 1014.36 1014.42 1014.52 1014.64 1014.77 1014.90 1015.02 1015.11 1015.17 1015.21 1015.21 1015.18 1015.13 1015.06 1014.97 1014.84 1014.68 1014.47 1014.21 1013.89 1013.50 1013.07 1012.60 1012.11 1011.62 1011.16 1010.74 1010.37 1010.08 1009.85 1009.69 1009.59 1009.56 1009.59 1009.68 1009.84 1010.07 1010.37 1010.76
1014.22 1014.09 1013.99 1013.93 1013.90 1013.92 1013.97 1014.05 1014.14 1014.24 1014.34 1014.44 1014.53 1014.61 1014.67 1014.73 1014.77 1014.79 1014.78 1014.73 1014.64 1014.49 1014.27 1013.99 1013.64 1013.24 1012.80 1012.34 1011.89 1011.46 1011.08 1010.76 1010.50 1010.31 1010.19 1010.13 1010.12 1010.18 1010.29 1010.46 1010.70 1011.01 1011.39
1014.05 1013.83 1013.66 1013.53 1013.43 1013.38 1013.36 1013.37 1013.41 1013.48 1013.57 1013.67 1013.78 1013.91 1014.04 1014.17 1014.29 1014.39 1014.46 1014.49 1014.46 1014.36 1014.20 1013.95 1013.64 1013.28 1012.89 1012.48 1012.08 1011.71 1011.38 1011.12 1010.91 1010.77 1010.68 1010.65 1010.67 1010.74 1010.86 1011.04 1011.28 1011.58 1011.95
1014.02 1013.71 1013.44 1013.21 1013.02 1012.87 1012.76 1012.69 1012.67 1012.68 1012.74 1012.83 1012.96 1013.12 1013.30 1013.49 1013.69 1013.86 1014.00 1014.09 1014.12 1014.07 1013.96 1013.76 1013.50 1013.20 1012.86 1012.52 1012.18 1011.88 1011.62 1011.42 1011.26 1011.17 1011.12 1011.12 1011.16 1011.24 1011.37 1011.54 1011.76 1012.04 1012.39
Thickness
5671 5670 5668 5667 5665 5663 5661 5660 5659 5659 5660 5660 5662 5665 5669 5674 5679 5684 5688 5692 5696 5700 5704 5709 5713 5716 5719 5721 5723 5723 5723 5723 5725 5724 5725 5729 5734 5737 5740 5742 5743 5744 5744
5666 5665 5664 5662 5660 5657 5656 5655 5654 5654 5653 5653 5655 5657 5660 5665 5670 5675 5679 5684 5687 5691 5696 5700 5704 5708 5712 5714 5717 5718 5718 5719 5720 5718 5715 5716 5721 5728 5734 5737 5739 5741 5741
5663 5662 5661 5659 5657 5654 5653 5651 5650 5649 5649 5649 5650 5653 5655 5658 5662 5666 5670 5675 5679 5683 5687 5692 5696 5701 5704 5708 5711 5714 5715 5714 5715 5717 5715 5711 5712 5719 5725 5730 5734 5736 5737
5663 5661 5659 5657 5655 5653 5652 5650 5648 5647 5646 5646 5646 5646 5648 5650 5654 5657 5662 5667 5671 5675 5679 5684 5688 5693 5697 5701 5704 5709 5711 5711 5710 5711 5714 5716 5716 5713 5714 5721 5727 5731 5733
5664 5662 5660 5657 5655 5653 5651 5649 5647 5646 5645 5644 5643 5643 5644 5646 5649 5653 5656 5659 5663 5667 5671 5676 5681 5685 5689 5694 5697 5702 5705 5707 5708 5709 5710 5709 5711 5713 5712 5712 5717 5722 5728
5666 5663 5661 5659 5656 5654 5651 5648 5646 5644 5643 5643 5642 5641 5641 5643 5645 5647 5650 5653 5656 5660 5664 5668 5672 5677 5682 5686 5691 5695 5698 5701 5704 5707 5709 5708 5707 5708 5709 5709 5711 5714 5720
5666 5663 5661 5658 5656 5653 5651 5648 5645 5643 5642 5641 5640 5640 5639 5640 5641 5642 5644 5646 5649 5652 5656 5660 5664 5669 5675 5680 5684 5688 5692 5695 5698 5701 5704 5707 5708 5709 5708 5707 5707 5708 5712
5668 5665 5663 5660 5657 5654 5652 5649 5645 5643 5641 5640 5639 5638 5638 5638 5638 5639 5640 5641 5643 5646 5649 5653 5657 5662 5667 5672 5677 5681 5686 5689 5693 5696 5699 5701 5704 5705 5706 5706 5704 5702 5703
5671 5668 5666 5663 5659 5656 5653 5649 5646 5643 5642 5640 5638 5637 5636 5635 5635 5636 5636 5637 5638 5641 5643 5646 5650 5655 5659 5664 5669 5673 5678 5683 5687 5690 5693 5696 5699 5701 5703 5704 5705 5702 5698
5673 5671 5668 5665 5661 5658 5655 5651 5648 5644 5642 5640 5637 5636 5634 5633 5632 5632 5632 5633 5634 5635 5637 5640 5644 5648 5652 5656 5661 5665 5670 5675 5679 5683 5687 5690 5694 5696 5698 5700 5701 5702 5701
5675 5672 5670 5667 5664 5660 5657 5653 5650 5646 5643 5640 5637 5634 5632 5631 5630 5629 5628 5629 5630 5631 5633 5635 5639 5642 5645 5649 5653 5657 5662 5666 5671 5676 5681 5684 5688 5691 5693 5695 5696 5697 5698
5679 5676 5673 5669 5666 5662 5659 5655 5651 5647 5644 5640 5637 5634 5632 5629 5627 5626 5625 5625 5626 5627 5628 5630 5633 5636 5639 5643 5646 5650 5654 5659 5663 5669 5673 5678 5681 5684 5687 5689 5691 5693 5695
5683 5679 5675 5671 5668 5665 5661 5657 5654 5649 5646 5642 5638 5634 5631 5628 5625 5623 5623 5622 5622 5622 5623 5625 5627 5629 5633 5636 5640 5644 5648 5652 5657 5662 5666 5671 5675 5678 5680 5683 5685 5687 5690
5685 5682 5678 5674 5671 5668 5664 5660 5656 5652 5648 5643 5638 5634 5630 5627 5624 5622 5621 5619 5619 5618 5618 5619 5621 5623 5627 5630 5634 5637 5641 5646 5651 5656 5660 5666 5670 5673 5675 5677 5680 5681 5683
5689 5686 5682 5678 5674 5671 5667 5663 5659 5654 5649 5644 5639 5635 5631 5627 5624 5621 5619 5617 5616 5615 5614 5614 5616 5618 5622 5625 5628 5632 5636 5639 5644 5649 5655 5661 5665 5669 5671 5673 5674 5676 5677
5693 5691 5687 5683 5678 5674 5670 5666 5661 5656 5651 5645 5641 5636 5632 5628 5624 5621 5618 5616 5614 5612 5611 5610 5611 5613 5617 5621 5625 5628 5631 5634 5638 5642 5648 5654 5659 5663 5667 5669 5671 5672 5673
5697 5694 5690 5686 5682 5678 5674 5669 5664 5659 5653 5647 5642 5638 5633 5629 5625 5621 5617 5615 5612 5610 5609 5608 5609 5610 5613 5618 5622 5625 5626 5629 5633 5637 5641 5647 5653 5656 5660 5663 5665 5667 5670
5702 5699 5695 5690 5687 5683 5678 5672 5666 5660 5655 5649 5644 5639 5635 5630 5626 5622 5618 5615 5612 5610 5608 5607 5607 5608 5611 5615 5618 5621 5622 5625 5628 5632 5636 5641 5646 5650 5654 5656 5658 5660 5662
5708 5703 5699 5695 5690 5686 5681 5674 5668 5662 5657 5651 5647 5642 5637 5632 5627 5623 5619 5616 5612 5610 5608 5606 5605 5606 5607 5611 5614 5617 5618 5620 5623 5627 5631 5635 5640 5645 5648 5650 5652 5653 5654
5711 5707 5702 5697 5692 5688 5683 5676 5670 5664 5659 5655 5650 5645 5639 5634 5629 5625 5621 5617 5613 5610 5608 5606 5604 5604 5605 5608 5611 5614 5614 5616 5619 5622 5626 5630 5634 5638 5641 5643 5645 5645 5647
5714 5710 5704 5698 5695 5690 5684 5677 5672 5667 5664 5659 5653 5648 5643 5637 5632 5627 5623 5619 5615 5611 5608 5606 5604 5603 5603 5605 5608 5611 5611 5612 5615 5617 5621 5624 5628 5631 5634 5636 5638 5639 5641
5714 5710 5704 5700 5697 5691 5685 5679 5675 5673 5667 5661 5656 5651 5646 5641 5637 5630 5625 5621 5617 5613 5609 5606 5605 5604 5604 5604 5606 5609 5610 5611 5612 5613 5616 5619 5623 5626 5627 5629 5631 5632 5634
5713 5709 5704 5700 5697 5693 5687 5682 5681 5676 5670 5664 5659 5654 5649 5644 5639 5633 5628 5623 5619 5615 5611 5608 5605 5604 5604 5604 5606 5607 5608 5609 5610 5611 5613 5616 5618 5620 5621 5623 5625 5627 5628
5710 5707 5703 5699 5697 5694 5690 5687 5684 5679 5672 5666 5661 5656 5651 5647 5642 5636 5631 5626 5622 5618 5614 5611 5608 5606 5605 5604 5605 5606 5607 5608 5609 5609 5611 5612 5614 5615 5617 5618 5620 5622 5624
5707 5704 5701 5698 5698 5696 5692 5690 5685 5679 5673 5669 5664 5659 5655 5650 5645 5641 5636 5632 5627 5622 5618 5615 5611 5609 5608 5607 5607 5607 5608 5608 5609 5609 5610 5611 5611 5612 5612 5613 5615 5617 5619
5702 5700 5699 5697 5697 5695 5692 5691 5687 5681 5675 5670 5667 5662 5657 5653 5648 5644 5641 5638 5634 5631 5627 5623 5618 5615 5614 5613 5612 5611 5611 5611 5611 5610 5609 5609 5609 5609 5610 5611 5611 5613 5614